Showing default

COSMOS 2213, 22184

Orbit data source: Space-Track

COSMOS 2213, 22184 is a payload satellite owned by VKS (CIS) in LEO that was launched on Tue, 20 Oct 1992 UTC via a TSIKLON-3 launch vehicle from the Plesetsk Missile And Space Complex (PKMTR). Payload-class satellites include a variety of spacecraft equipped with specific instruments for various scientific and technological missions. These include communications satellites like Starlink; space stations such as the ISS; scientific satellites like the Hubble; Earth observation satellites from companies like Planet Labs, Umbra, and HawkEye 360; GPS; miniature CubeSats for education and research; and military/defense satellites.

Loading next visibility...
Identifier
22184, 1992-068C
Orbit
LEO
Country
Flag of CISCIS
Related business
Manufacturer
NPO PM
Mission
Defense Communications
Bus & Motor
STRELA-3, Unknown motor
Mass
225 kg wet, 225 kg dry
Launch date (UTC)
1992-10-20 (33 years ago)
Launch vehicle
TSIKLON-3
Launch site
Plesetsk Missile And Space Complex (PKMTR)
Object type
Payload
Rocket body
Debris
Shape & HBR
Cyl, 0.8 m
Radar Cross Section
1.257 m², Large (>1 m²)

Expand to show TLE details & history
Last TLE update: 1 day ago

TLE from 1 day ago
0 COSMOS 2213
1 22184U 92068C   25259.18681396  .00000020  00000-0  50579-4 0  9999
2 22184  82.6037 161.4566 0003981  41.1942 114.1622 12.62602028516374
Epoch: 2025-09-16T04:29Z
TLE epoch observation values (Epoch: 2025-09-16T04:29:00.726Z)
Latitude
24.40745°
Longitude
-84.53745°
Altitude
1,416.3 km
Speed
7.154 km/s
True Right ascension
22h 32m 23s
True Declination
24° 17' 21"
Sunlit
Object was in full shadow at epoch
Visualization orbit readout
Latitude
Unknown
Longitude
Unknown
Altitude
Unknown
Speed
Unknown
Apparent Right ascension
Unknown
Apparent Declination
Unknown
Sunlit
N/A
Visualization observer readout
Local Sidereal Time
23:31:41
Azimuth
Unknown
Elevation
Unknown
Doppler factor
Unknown
Orbital elements
Apogee altitude
1,412.642 km
Perigee altitude
1,406.442 km
Semi-major axis
7,787.679 km
Eccentricity
0.0004
Inclination
82.6037°
RAAN
161.4566°
Arg. of periapsis
41.1942°
True anomaly
114.20381°
Mean anomaly
114.1622°
Eccentric anomaly
114.18301°
Mean motion
3.15814 °/min
Orbital period
113.99 mins
BSTAR
0.000050579
Loading maneuver chart data...
Computing Atmospheric mass density...
Loading historical data...
Loading historical data...
Loading historical data...
Loading historical data...
Loading historical data...
Loading historical data...
Loading historical data...

Documentation

Showing up to 5 results
|